User: anonymous   Login
Location: Chanteloup
(48.8560°N, 2.7390°E)
Time: 17:47:20
(UTC+00:00)
Language:

Cosmos 371 Rocket - Orbit

View from above orbital plane
View from above orbital plane
View from above satellite
View from above satellite

Ground track
Ground track

The orbit data is extracted from the following two-line orbital elements,

1 04579U 70083B   22018.71018185  .00000219  00000-0  51203-4 0  9994
2 04579  74.0027 123.8855 0009168  83.9642 276.2569 14.60577448719454
Epoch (UTC): 18 January 2022 17:02:39
Eccentricity: 0.0009168
inclination: 74.0027°
perigee height: 685 km
apogee height: 698 km
right ascension of ascending node: 123.8855°
argument of perigee: 83.9642°
revolutions per day: 14.60577448
mean anomaly at epoch: 276.2569°
orbit number at epoch: 71945

The dashed part of the orbit path shows where the satellite is in the earth's shadow,  

DLR